This is the latest recevied weather packets stored in our database for station/object LU1MQF-10. If no packets are shown the sender has not sent any weather packets the latest 10 day(s).
| Time | Temp. | Humidity | Pressure | Rain* | Wind** | Luminosity | Snow |
|---|---|---|---|---|---|---|---|
| 1778097611 | 20° C | 29% | 1010.7 hPa | - | - | - | - |
| 1778096717 | 20° C | 27% | 1011.6 hPa | - | - | - | - |
| 1778096711 | 20° C | 27% | 1011.6 hPa | - | - | - | - |
| 1778095817 | 20° C | 26% | 1011.5 hPa | - | - | - | - |
| 1778095810 | 20° C | 26% | 1011.5 hPa | - | - | - | - |
| 1778094917 | 20° C | 25% | 1011.1 hPa | - | - | - | - |
| 1778094910 | 20° C | 25% | 1011.1 hPa | - | - | - | - |
| 1778094017 | 20° C | 26% | 1011.3 hPa | - | - | - | - |
| 1778094010 | 20° C | 26% | 1011.3 hPa | - | - | - | - |
| 1778093117 | 20.56° C | 25% | 1011 hPa | - | - | - | - |
| 1778093110 | 20.56° C | 25% | 1011 hPa | - | - | - | - |
| 1778092217 | 20.56° C | 26% | 1010.6 hPa | - | - | - | - |
| 1778092209 | 20.56° C | 26% | 1010.6 hPa | - | - | - | - |
| 1778091313 | 20.56° C | 29% | 1009.8 hPa | - | - | - | - |
| 1778091309 | 20.56° C | 29% | 1009.8 hPa | - | - | - | - |
| 1778090413 | 20.56° C | 40% | 1010.3 hPa | - | - | - | - |
| 1778090409 | 20.56° C | 40% | 1010.3 hPa | - | - | - | - |
| 1778089513 | 20.56° C | 41% | 1010.4 hPa | - | - | - | - |
| 1778089508 | 20.56° C | 41% | 1010.4 hPa | - | - | - | - |
| 1778088608 | 20.56° C | 41% | 1010.5 hPa | - | - | - | - |
| 1778087708 | 20.56° C | 40% | 1010.3 hPa | - | - | - | - |
| 1778086813 | 20.56° C | 40% | 1010 hPa | - | - | - | - |
| 1778086808 | 20.56° C | 40% | 1010 hPa | - | - | - | - |
| 1778085912 | 20.56° C | 40% | 1009.9 hPa | - | - | - | - |
| 1778085908 | 20.56° C | 40% | 1009.9 hPa | - | - | - | - |
* Rain since midnight (hover to see other rain measurements)
** Current wind speed in m/s (hover to see current wind gust speed)